Tracking 21473 objects as of 26-Sep-2020
HD Live streaming from Space Station
objects crossing your sky now

DELTA 1 DEB

Track DELTA 1 DEB now!
10-day predictions


NORAD ID: 37662
Int'l Code: 1978-026JZ
Perigee: 829.5 km
Apogee: 879.2 km
Inclination: 98.9 °
Period: 101.9 minutes
Semi major axis: 7225 km
RCS: 0.0109 m2 (small)
Launch date: March 5, 1978
Source: United States (US)
Launch site: AIR FORCE WESTERN TEST RANGE (AFWTR)

Note: This is SATELLITE DEBRIS
aabbcc
Your satellite tracking list
Your tracking list is empty




NASA's NSSDC Master Catalog

Two Line Element Set (TLE):
1 37662U 78026JZ  20268.21989465 +.00000107 +00000-0 +80250-4 0  9996
2 37662 098.9089 241.2929 0034356 260.5998 099.1289 14.13560119370883
Source of the keplerian elements: AFSPC